Location: Unspecified
(49.8670°N, 0.0000°E)
Time: 04:20:25
(UTC+00:00)

S-56A Canister/Altair - Pass Details

Date: 17 June 2019
Orbit: 633 x 2499 km, 38.9° (Epoch: 21 August)

Event Time Altitude Azimuth Distance (km) Brightness Sun altitude
Rises 16:17:32 0° 207° (SSW) 4,577 11.8 34.2°
Reaches altitude 10° 16:22:44 10° 185° (S) 3,156 10.8 33.3°
Maximum altitude 16:26:11 14° 157° (SSE) 2,595 10.2 32.8°
Drops below altitude 10° 16:29:10 10° 128° (SE) 2,627 10.0 32.3°
Sets 16:32:44 0° 102° (ESE) 3,304 10.3 31.7°
